User: anonymous   Login
Location: Mentone
(34.5413°N, 85.5351°W)
Time: 02:39:58
(UTC-05:00)
Language:

ADEOS Rocket - Orbit

View from above orbital plane
View from above orbital plane
View from above satellite
View from above satellite

Ground track
Ground track

The orbit data is extracted from the following two-line orbital elements,

1 24279U 96046C   17228.47917869 +.00000023 +00000-0 +70924-4 0  9991
2 24279 098.7554 164.9956 0300638 134.9402 334.6513 13.47088505032086
Epoch (UTC): 16 August 2017 11:30:01
Eccentricity: 0.0300638
inclination: 98.7554°
perigee height: 858 km
apogee height: 1307 km
right ascension of ascending node: 164.9956°
argument of perigee: 134.9402°
revolutions per day: 13.47088505
mean anomaly at epoch: 334.6513°
orbit number at epoch: 3208

The dashed part of the orbit path shows where the satellite is in the earth's shadow,  

DLR